Regional Weather Roundup
Issued by NWS

Home | Current Version | Previous Version | Text Only | Print | Product List | Glossary Off
Versions: 1 2 3 4 5 6 7 8 9 10 11 12 13 14 15 16 17 18 19 20 21 22 23 24 25 26 27 28 29 30 31 32 33 34 35 36 37 38 39 40 41 42 43 44 45 46 47 48 49 50

000
ASUS43 KLMK 180002
RWRKY
KENTUCKY REGIONAL WEATHER ROUNDUP
NATIONAL WEATHER SERVICE LOUISVILLE KY
800 PM EDT THU AUG 17 2017

NOTE "FAIR" INDICATES FEW OR NO CLOUDS BELOW 12,000 FEET
WITH NO SIGNIFICANT WEATHER AND/OR OBSTRUCTIONS TO VISIBILITY.

KYZ001>023-026-027-061>063-070>075-180100-
WESTERN AND SOUTH CENTRAL KENTUCKY

CITY           SKY/WX    TMP DP  RH WIND       PRES   REMARKS
PADUCAH        CLOUDY    81  70  69 SW9       29.88S
HENDERSON      CLEAR     82  71  69 SW7       29.87R
OWENSBORO      CLOUDY    83  76  79 SW10      29.87S HX  91
HOPKINSVILLE   CLOUDY    80  74  82 SW13      29.90F
BOWLING GREEN  CLOUDY    85  75  72 SW9       29.91R HX  93
GLASGOW        PTCLDY    83  71  67 SW6       29.92S
$$

KYZ024-025-028>034-038-045-046-053-180100-
NORTH CENTRAL KENTUCKY

CITY           SKY/WX    TMP DP  RH WIND       PRES   REMARKS
LOUISVILLE/SDF MOCLDY    76  73  91 SE6       29.88S
LOUISVILLE/LOU CLOUDY    75  75 100 S5        29.90S
FORT KNOX      CLOUDY    76  73  88 S6        29.89S
$$

KYZ035>037-039>044-047>052-055>060-089>105-180100-
NORTHEAST KENTUCKY

CITY           SKY/WX    TMP DP  RH WIND       PRES   REMARKS
LEXINGTON      CLEAR     83  69  62 SW10      29.92R
COVINGTON      CLOUDY    78  76  93 S9        29.87S
FRANKFORT      RAIN      79  71  76 W18G43    29.93R SQUALL
$$

KYZ054-064>069-076>088-106>120-180100-
SOUTHEAST KENTUCKY

CITY           SKY/WX    TMP DP  RH WIND       PRES   REMARKS
JACKSON        CLEAR     82  72  71 CALM      29.96R
LONDON         CLEAR     84  69  60 SW7       29.97R
SOMERSET       NOT AVBL
MIDDLESBORO    CLEAR     83  74  74 SW3       29.99R HX  90
MONTICELLO     CLEAR     82  73  74 W12       29.98R
$$





USA.gov is the U.S. government's official web portal to all federal, state and local government web resources and services.